Location: Unspecified
(41.5516°N, 88.1098°W)
Time: 06:42:47
(UTC-05:00)

Cosmos 1674 - Visible Passes

Search period start: 24 April 2014 00:00
Search period end: 04 May 2014 00:00
Orbit: 516 x 546 km, 82.5° (Epoch: 24 April)

Date Brightness Start Highest point End Pass type
(mag) Time Alt. Az. Time Alt. Az. Time Alt. Az.
24 Apr 5.4 05:13:32 10° SE 05:16:44 24° E 05:19:55 10° NE visible
25 Apr 5.4 05:03:29 10° SE 05:06:35 23° E 05:09:41 10° NE visible
26 Apr 5.5 04:53:26 10° SE 04:56:26 21° E 04:59:25 10° NE visible
27 Apr 5.5 04:43:22 10° SE 04:46:15 20° E 04:49:09 10° NE visible
28 Apr 5.6 04:33:18 10° SE 04:36:04 19° E 04:38:50 10° NE visible
29 Apr 5.6 04:23:14 10° SE 04:25:53 18° E 04:28:31 10° NE visible
30 Apr 5.6 04:13:11 10° SE 04:15:40 16° E 04:18:10 10° NE visible
01 May 5.6 04:03:07 10° ESE 04:05:27 15° E 04:07:47 10° NE visible
02 May 5.6 03:53:04 10° ESE 03:55:13 14° E 03:57:22 10° NE visible
03 May 5.6 03:43:02 10° ESE 03:44:59 14° E 03:46:55 10° NE visible
03 May 3.3 05:16:56 10° SSW 05:20:37 39° WNW 05:24:18 10° N visible
